Regional Weather Roundup
Issued by NWS

Home | Current Version | Previous Version | Text Only | Print | Product List | Glossary On
Versions: 1 2 3 4 5 6 7 8 9 10 11 12 13 14 15 16 17 18 19 20 21 22 23 24 25 26 27 28
000
ASUS45 KREV 250110
RWRNV
NEVADA REGIONAL WEATHER ROUNDUP
NATIONAL WEATHER SERVICE RENO NV
600 PM PDT TUE APR 24 2018

NOTE: "FAIR" INDICATES FEW OR NO CLOUDS BELOW 12,000 FEET WITH NO
SIGNIFICANT WEATHER AND/OR OBSTRUCTIONS TO VISIBILITY.

NVZ001-003-004-250200-
WESTERN NEVADA

CITY           SKY/WX    TMP DP  RH WIND       PRES   REMARKS
RENO           MOSUNNY   73  19  13 E8        30.09F
CARSON CITY    FAIR      72  18  13 NE13      30.11F
MINDEN         FAIR      72  25  17 MISG      30.11S
FALLON         MOSUNNY   74  21  13 N7        30.07F
LOVELOCK       SUNNY     73  19  13 MISG      30.09F
HAWTHORNE      SUNNY     73  18  12 NW17      30.06F
$$

NVZ002-CAZ072-073-250200-
NORTHERN AND CENTRAL SIERRA

CITY           SKY/WX    TMP DP  RH WIND       PRES   REMARKS
S. LAKE TAHOE  SUNNY     62  27  26 N3        30.17S
TRUCKEE        MOSUNNY   68  28  22 SW13      30.16
SQUAW VLY 8000   N/A     50  32  50 SW6         N/A
BLUE CANYON    SUNNY     65  37  35 VRB7      30.15S
MAMMOTH LAKES  FAIR      68  23  18 W12       30.19S
BRIDGEPORT     FAIR      66  20  17 SW6       30.16S
$$

NVZ030-031-036-250200-
NORTHERN NEVADA

CITY           SKY/WX    TMP DP  RH WIND       PRES   REMARKS
ELKO           SUNNY     67  16  14 NE13      30.18F
WINNEMUCCA     SUNNY     71  18  13 CALM      30.13F
WENDOVER       SUNNY     63  18  17 E8        30.25F
$$

NVZ035-037-250200-
CENTRAL NEVADA

CITY           SKY/WX    TMP DP  RH WIND       PRES   REMARKS
ELY            SUNNY     64  12  13 N10       30.20S
EUREKA           N/A     66  14  13 N9        30.17F
$$

NVZ013-014-250200-
SOUTH CENTRAL NEVADA

CITY           SKY/WX    TMP DP  RH WIND       PRES   REMARKS
TONOPAH        SUNNY     75  13   9 S3        30.10F
$$

NVZ017-020-022-250200-
SOUTHERN NEVADA

CITY           SKY/WX    TMP DP  RH WIND       PRES   REMARKS
LAS VEGAS      PTSUNNY   89  25  10 E9        29.89F
N. LAS VEGAS   PTSUNNY   88  19   8 E3        29.89F
NELLIS AFB     PTSUNNY   89  23   9 CALM      29.88S
HENDERSON      PTSUNNY   88  26  10 E6        29.93F
MERCURY        PTSUNNY   85  22  10 SW9       29.95F
$$




USA.gov is the U.S. government's official web portal to all federal, state and local government web resources and services.